GFSSE_sfc_wetblb_021.txt.gz
Wetbulb
73.85 75.95 76.20 76.65 76.31 76.09 75.89 76.35 76.80 77.50 78.01 78.39 78.67 78.54 78.47 78.54 78.17 78.75 78.21 77.89 77.66 77.80 77.05 76.84 76.67 76.56 76.29 76.04 75.95 76.01 75.46 75.35 75.42 74.91 74.93 74.88 74.76 74.49 73.20 73.78 73.58 73.92 75.20
75.30 76.09 76.51 77.10 76.45 76.30 76.20 76.24 76.29 77.25 77.64 78.15 78.22 78.15 78.23 77.77 77.89 77.91 77.91 77.27 77.19 77.17 77.01 76.68 76.60 76.48 76.26 76.12 75.71 75.38 75.35 75.21 74.77 74.82 74.85 75.10 75.32 74.33 73.56 73.58 74.55 74.31 75.04
74.83 75.90 76.33 76.70 76.64 76.78 76.85 76.61 77.03 76.92 77.11 77.63 77.74 77.89 77.49 77.71 77.95 77.68 77.58 77.39 77.31 77.01 76.88 76.65 76.40 76.38 76.38 75.85 75.82 75.27 74.82 74.38 73.72 74.99 74.48 75.18 74.54 73.82 74.30 73.72 74.88 74.64 74.96
74.09 74.88 75.76 76.48 76.91 76.93 76.95 76.92 76.69 76.59 76.60 76.84 77.27 77.49 77.14 77.63 77.64 77.20 77.09 77.15 77.09 76.76 76.63 76.30 76.46 76.32 76.21 75.93 75.77 75.63 74.99 74.05 73.80 75.32 75.48 73.19 73.36 73.80 74.44 74.07 74.82 75.19 74.98
74.45 75.68 76.39 76.85 77.06 77.30 77.00 77.25 77.13 76.91 76.98 76.81 76.90 76.87 77.15 77.67 77.34 76.79 76.99 76.93 76.82 76.46 76.21 76.38 76.30 76.18 76.27 76.04 75.79 75.68 75.13 74.25 74.22 75.35 74.20 74.09 73.73 73.72 74.63 74.72 74.65 74.70 74.13
75.59 76.06 76.46 77.12 77.14 77.14 77.21 77.37 77.49 77.54 77.16 76.74 76.82 77.40 77.48 77.18 76.63 76.77 76.74 76.57 76.44 76.30 76.35 76.24 76.41 76.46 76.57 76.18 75.60 74.83 74.94 74.74 74.99 74.94 73.54 72.85 74.15 74.66 74.36 74.83 74.68 74.88 74.10
75.21 76.41 76.83 77.60 77.57 77.31 77.44 77.94 77.65 77.43 76.95 76.54 77.04 77.34 77.07 77.02 76.83 76.77 76.38 76.15 76.15 76.27 76.60 76.57 76.71 76.13 76.27 75.93 75.02 74.83 75.08 75.32 75.16 75.96 75.78 73.83 73.36 74.52 74.82 72.94 73.99 74.43 74.54
76.02 76.89 77.21 77.82 77.71 77.74 77.59 77.38 77.20 76.96 76.90 77.00 77.09 76.99 76.96 76.99 76.63 76.32 75.84 75.95 76.01 76.37 76.54 77.05 76.71 75.88 75.93 75.32 74.99 74.82 75.24 75.63 75.73 76.67 76.90 74.81 75.03 73.69 74.36 73.11 73.11 74.53 73.97
76.18 76.68 77.11 77.63 77.90 77.81 77.63 77.20 77.04 77.06 77.06 77.06 76.85 76.76 76.63 76.60 76.21 75.62 75.65 75.76 75.65 76.29 76.48 76.29 76.18 75.29 75.63 75.07 74.63 74.63 75.43 75.82 76.52 76.27 75.74 75.80 75.65 75.20 73.68 74.77 74.68 74.58 74.82
76.40 75.98 76.51 77.40 77.29 78.26 78.28 77.21 76.91 76.88 76.63 76.77 76.63 76.93 76.93 77.10 76.85 76.01 75.98 76.24 75.71 75.68 75.73 75.67 75.45 74.98 75.30 74.99 74.85 75.41 76.13 76.69 76.83 76.13 76.45 75.75 75.74 74.85 75.77 73.83 75.00 74.81 74.86
75.26 76.04 76.60 75.88 76.09 77.21 77.44 77.46 77.10 77.05 76.91 76.66 76.91 77.32 77.13 76.99 77.08 77.85 76.78 75.60 75.94 75.82 76.18 75.39 75.59 75.75 75.98 75.91 75.62 76.39 76.18 75.47 75.88 75.54 76.37 75.46 76.00 75.01 75.59 74.38 73.31 74.44 74.15
74.06 74.77 75.47 75.59 76.47 76.70 75.65 77.48 77.14 76.82 76.58 76.67 77.10 78.04 76.59 77.91 77.78 76.17 76.81 75.75 76.30 75.57 76.36 76.17 76.42 76.73 76.57 76.47 76.56 77.41 75.81 75.21 75.27 75.74 75.58 76.23 75.92 75.95 75.30 75.41 74.19 73.99 74.20
75.02 75.40 75.88 77.15 76.74 76.37 77.96 76.52 76.65 76.69 76.64 76.80 78.20 77.96 77.64 77.49 76.93 76.46 77.82 77.12 76.99 76.04 76.43 76.98 76.55 76.93 76.12 76.26 75.72 75.35 74.92 75.01 74.61 74.07 76.41 76.65 76.07 76.03 76.17 76.33 75.08 74.64 74.09
74.58 74.97 75.31 76.47 77.40 77.37 76.79 76.07 76.20 75.71 75.82 75.74 76.53 78.10 77.43 76.50 76.32 76.75 76.31 77.01 77.97 76.97 77.72 78.31 76.27 77.33 75.87 77.55 75.69 75.34 75.04 74.99 74.69 74.57 76.27 76.52 75.76 75.95 76.14 75.92 75.86 75.11 74.78
74.01 74.73 75.40 76.47 77.75 77.64 78.31 76.54 76.21 75.79 75.45 75.76 76.16 77.52 76.75 76.01 76.39 76.53 77.10 76.58 77.95 77.47 75.51 76.50 76.28 77.76 76.03 75.82 76.06 75.61 74.43 74.99 75.10 74.30 75.28 76.72 75.67 75.74 76.29 76.23 76.05 75.61 75.43
74.47 74.94 75.90 76.54 77.51 77.85 78.42 78.87 76.86 76.69 77.06 75.91 75.91 76.77 77.81 76.71 77.08 76.11 76.98 77.02 76.20 77.62 76.43 76.63 77.08 75.60 76.58 76.43 75.28 73.89 74.16 73.83 73.97 73.52 72.83 76.39 76.68 76.13 76.22 76.51 76.30 76.04 75.80
74.48 75.43 75.80 76.37 77.16 77.85 77.92 78.00 77.27 76.58 76.26 76.41 75.61 78.06 77.74 79.01 77.83 78.18 77.84 76.36 77.09 78.07 77.66 77.32 76.91 76.61 75.33 75.26 74.03 72.87 72.43 72.43 71.64 71.41 71.77 71.86 75.34 76.59 76.24 76.32 76.66 76.12 76.11
74.64 74.97 76.00 75.98 76.56 77.44 78.52 78.29 77.33 76.84 76.34 78.06 76.40 76.73 78.17 78.65 78.77 78.15 76.64 75.68 76.94 77.74 77.44 77.17 75.24 74.27 72.51 71.52 69.96 69.81 70.61 71.18 71.49 72.38 72.31 72.10 72.14 73.61 76.10 76.78 76.82 76.32 75.49
74.97 75.39 75.69 76.38 76.19 77.19 79.07 78.30 78.37 80.15 78.35 77.36 78.31 77.23 78.23 78.28 78.52 77.97 76.50 77.60 78.21 77.22 77.02 75.72 73.59 73.47 71.37 69.50 68.34 69.26 71.62 71.27 71.62 71.53 71.48 72.27 72.45 71.85 72.51 76.03 75.95 75.41 75.26
75.02 75.80 76.40 76.14 77.71 79.37 78.94 80.29 78.15 77.97 77.56 77.39 77.15 77.61 79.03 77.89 78.96 77.76 76.92 77.06 77.01 75.98 75.66 75.64 74.08 72.91 70.79 69.48 68.99 69.04 71.05 71.49 72.14 72.08 71.36 71.97 72.43 72.95 73.28 74.90 75.39 75.04 74.90
74.88 75.88 76.22 77.34 80.07 77.99 76.27 76.01 76.03 75.38 76.06 76.07 77.01 78.13 79.06 78.46 77.84 78.09 76.22 76.71 76.68 75.44 75.14 74.28 72.36 71.83 68.83 71.74 68.74 69.62 69.74 71.05 71.19 71.83 71.60 70.55 71.29 72.45 73.08 73.66 74.81 75.21 74.60
74.72 76.07 77.84 78.38 80.12 79.03 77.63 77.71 77.73 77.19 75.07 76.16 77.58 79.59 78.42 77.69 78.33 77.66 77.71 76.87 77.33 74.25 74.92 72.86 71.54 69.01 68.94 71.11 67.75 66.95 65.37 67.88 70.14 70.50 70.48 69.42 69.86 70.91 71.58 73.06 73.32 73.61 74.27
74.37 75.70 78.29 79.85 80.55 80.33 80.42 78.97 78.11 77.87 76.64 75.63 74.62 75.81 77.49 77.38 77.68 77.87 77.76 76.36 76.51 74.25 69.72 72.33 71.74 70.98 67.95 69.73 70.69 68.01 64.52 63.84 66.56 69.48 70.05 68.63 68.93 68.67 69.19 70.22 69.63 69.83 70.93
74.42 76.19 79.01 79.90 80.68 80.38 81.24 78.62 79.20 75.96 73.85 73.61 74.64 75.20 75.32 75.95 75.97 76.82 75.74 75.66 75.18 72.18 74.93 72.11 71.36 71.36 70.66 68.39 69.26 69.67 69.72 68.97 64.94 64.52 68.58 67.89 68.02 67.60 67.63 67.52 67.39 67.78 68.32
74.75 75.40 77.04 80.14 81.09 81.13 80.90 79.99 77.56 77.27 74.75 74.74 74.49 77.76 77.30 78.22 75.96 74.75 76.00 75.10 73.60 70.24 72.96 72.77 71.68 71.90 71.39 68.69 68.11 68.11 69.54 67.35 68.22 64.20 62.42 64.57 66.61 66.68 67.08 66.79 66.42 66.30 67.28
74.27 75.08 76.05 79.51 80.87 81.54 81.09 80.61 80.47 80.31 77.29 75.28 75.86 74.22 73.40 74.21 74.36 75.69 75.37 74.79 73.79 72.51 72.90 72.49 72.21 71.56 71.12 71.05 70.10 69.05 66.31 65.56 65.31 64.72 63.39 65.11 65.11 66.01 66.57 66.98 67.01 67.05 66.57

GFSSE_sfc_wetblb_024.txt.gz
Wetbulb
72.54 74.47 75.89 75.91 75.67 75.94 76.99 77.68 78.35 78.79 79.04 78.94 78.97 79.11 79.04 79.09 78.96 78.64 78.51 78.50 78.56 78.08 77.91 77.54 77.21 76.58 76.37 76.28 76.28 76.06 75.84 75.60 75.35 75.07 75.04 75.18 75.06 73.88 74.24 73.77 73.22 73.71 75.60
73.90 74.94 76.37 76.36 76.36 76.68 76.63 77.60 78.24 78.48 78.84 78.70 78.75 78.84 78.94 78.97 78.69 78.48 78.33 78.36 78.20 77.92 77.25 76.87 76.67 76.47 76.39 76.23 75.98 75.79 75.43 74.77 75.15 75.07 75.07 75.07 74.54 73.99 74.07 75.01 76.51 74.07 74.89
74.00 75.02 75.34 76.95 76.73 76.81 77.40 77.61 77.97 78.28 78.46 78.53 78.62 78.85 78.74 78.76 78.60 78.39 78.41 78.14 77.71 77.33 76.73 76.57 76.68 76.68 76.34 76.17 75.98 75.51 74.93 74.05 73.77 74.08 74.54 74.27 72.23 74.93 74.52 75.17 75.54 75.50 74.94
73.93 74.20 74.38 77.41 77.20 77.15 77.89 77.96 77.75 77.82 77.85 78.32 78.35 78.70 78.80 78.48 78.26 77.88 77.39 77.08 76.95 76.76 76.57 76.71 76.65 76.62 76.45 76.03 75.95 75.68 75.15 74.55 75.02 75.13 74.63 74.09 70.82 75.23 74.57 75.37 75.29 75.50 75.20
73.50 75.24 76.12 77.26 77.76 77.68 77.90 77.92 77.97 77.88 77.80 78.15 78.29 78.38 78.53 77.99 77.26 77.23 77.04 76.79 76.65 76.51 76.63 76.63 76.71 76.62 76.42 76.20 75.62 75.57 75.24 74.88 75.63 75.56 74.33 72.95 71.22 74.68 75.13 75.21 75.11 74.83 75.18
74.92 74.74 76.72 77.47 77.76 77.87 78.24 78.11 78.25 78.01 77.66 77.89 78.14 78.07 77.53 77.21 76.85 77.13 76.77 76.40 76.32 76.35 76.46 76.88 76.76 76.54 76.37 75.87 75.38 74.82 74.99 75.26 75.93 75.51 74.52 73.47 72.67 75.12 75.44 74.73 75.53 74.84 74.42
74.29 75.07 76.09 78.12 78.17 78.08 77.84 78.15 77.93 77.23 77.38 77.87 78.01 77.37 77.32 77.10 76.93 76.68 76.12 75.98 76.01 76.57 76.57 77.07 76.63 76.24 75.88 75.71 74.79 74.68 74.82 75.26 75.68 75.41 73.88 71.78 73.73 75.74 74.87 75.04 74.96 74.76 75.00
74.52 75.15 75.91 78.01 78.19 77.96 78.32 77.93 77.67 77.14 76.87 77.17 77.28 77.12 77.21 76.88 76.57 76.26 75.63 75.69 76.11 76.47 76.76 76.91 76.46 76.07 75.74 74.65 74.54 74.90 74.76 75.07 75.27 74.22 74.13 71.88 74.09 75.45 73.07 73.88 74.53 74.81 74.33
75.06 75.58 76.60 76.43 77.57 78.03 78.21 77.68 77.39 77.17 77.08 77.20 76.87 76.74 76.74 76.65 76.57 76.23 75.68 75.39 75.61 76.17 76.39 76.46 76.03 75.39 75.18 74.59 74.93 75.60 75.63 75.79 75.32 74.95 73.89 73.47 74.89 74.95 74.90 73.91 74.37 74.63 74.54
74.56 75.81 76.39 76.99 77.37 77.25 76.49 77.36 77.04 77.06 76.87 76.57 76.21 76.21 76.32 76.57 76.93 76.64 76.99 76.79 75.70 75.53 75.67 75.89 75.81 75.13 75.48 75.68 75.93 76.49 75.96 74.21 75.65 74.35 74.43 73.58 75.99 75.64 74.46 75.02 74.83 74.98 75.03
74.26 75.09 75.33 75.94 77.36 77.51 76.55 76.03 76.93 76.54 76.43 76.24 76.43 76.96 77.53 75.38 76.02 76.95 77.94 76.79 76.17 75.84 75.92 75.97 76.45 77.21 77.18 77.29 78.01 77.57 76.20 71.87 74.12 72.27 74.65 74.82 75.90 76.14 75.96 74.35 75.29 75.03 75.27
73.19 73.52 75.18 74.75 75.17 76.96 75.43 76.87 76.96 76.02 75.71 76.12 76.45 77.96 76.71 75.08 75.37 77.34 77.39 76.92 75.52 75.56 76.11 76.71 77.49 75.95 77.52 76.20 76.01 77.52 73.95 74.34 73.60 74.08 74.54 75.99 76.48 76.12 76.33 74.81 74.61 74.95 74.54
74.16 73.81 75.04 75.89 76.22 75.29 76.31 76.09 76.06 76.23 76.26 76.58 78.60 76.48 78.75 76.76 76.80 75.33 75.66 78.86 75.59 77.86 76.24 75.98 73.61 71.23 73.71 76.61 76.04 75.38 74.08 73.95 73.07 73.30 74.73 75.56 77.00 76.57 75.88 75.86 74.53 74.47 74.47
73.64 74.66 74.18 76.87 77.71 76.20 75.83 75.75 76.32 76.34 76.41 75.44 77.16 79.21 79.28 78.32 77.46 77.14 74.86 77.84 76.82 75.81 76.43 76.62 73.08 73.61 76.27 76.57 76.09 74.90 74.11 73.15 72.84 74.82 74.92 76.82 76.81 77.35 76.52 76.76 75.66 74.96 74.81
73.47 74.48 75.59 77.20 78.44 79.88 79.26 78.02 76.15 76.46 74.64 77.07 76.74 77.63 77.46 77.56 75.12 77.24 77.72 76.79 77.78 77.29 75.76 75.95 76.86 75.14 73.99 75.46 76.01 76.19 74.02 73.60 73.02 74.24 74.48 76.30 76.41 77.41 77.14 76.60 76.50 75.64 75.21
73.85 74.27 75.97 76.50 78.07 79.50 79.81 81.41 80.32 79.17 79.31 74.59 76.12 76.73 78.89 78.97 78.94 76.19 77.05 76.95 77.93 75.88 76.26 77.38 78.01 77.41 76.77 76.60 75.15 75.33 74.16 73.68 73.60 73.10 73.23 75.27 76.18 76.85 77.41 77.60 76.56 76.40 75.95
74.05 74.96 75.36 76.15 77.77 78.18 79.17 79.71 79.81 78.71 77.49 77.64 76.09 77.43 78.92 79.68 79.60 80.15 78.30 77.74 77.26 78.28 76.16 77.96 77.76 77.28 75.86 75.26 75.02 74.65 71.32 71.92 71.87 71.67 71.60 71.84 75.63 76.88 77.03 77.04 76.50 76.13 76.72
74.31 75.53 76.68 74.92 76.59 77.64 78.50 79.28 77.47 76.50 76.43 77.02 76.54 76.10 76.83 78.56 79.35 79.47 77.39 76.33 75.61 75.41 76.36 75.08 75.69 75.69 73.43 72.14 70.32 70.06 71.24 71.64 71.63 72.19 72.39 71.69 73.04 74.60 75.91 76.57 77.02 76.63 75.93
74.96 76.18 75.53 76.87 76.20 77.32 78.44 78.36 78.41 77.96 76.55 78.75 75.85 75.99 77.01 79.05 78.41 78.73 77.23 75.75 78.05 76.66 76.82 75.94 75.46 73.07 72.04 70.73 68.69 70.12 71.93 71.64 71.82 70.72 70.58 71.28 71.93 71.17 74.07 75.97 75.59 76.48 75.66
74.75 76.15 76.51 76.56 78.81 78.00 77.44 78.35 79.00 76.99 79.84 76.10 77.99 77.83 76.69 78.75 79.84 76.04 76.88 76.58 78.09 77.72 76.94 76.20 74.52 73.76 71.64 69.88 69.49 68.70 70.51 71.65 72.25 70.38 69.86 70.94 70.28 71.29 73.88 73.49 74.04 74.63 74.73
74.51 75.91 76.27 77.35 78.75 78.71 77.93 76.07 76.15 75.71 76.74 76.61 77.64 75.58 77.22 79.20 79.60 79.56 77.16 77.83 77.95 76.46 75.53 74.48 73.54 70.64 70.78 71.23 69.81 68.65 69.78 70.19 70.77 69.39 68.79 69.55 70.63 70.32 72.45 72.59 72.30 73.61 73.61
74.22 75.13 76.61 76.83 79.39 78.28 77.75 77.77 76.79 75.57 76.20 75.74 76.78 79.08 78.05 78.21 78.60 77.81 76.93 77.01 76.61 74.42 74.03 73.20 72.04 70.16 70.22 72.06 67.89 67.75 63.46 65.68 67.99 67.93 69.84 68.83 68.57 69.91 71.10 71.91 72.15 72.24 72.88
73.85 75.46 76.18 76.96 78.49 77.85 79.23 77.66 77.55 78.26 79.59 76.54 76.60 76.08 77.68 78.63 78.75 77.47 78.38 77.69 76.85 75.45 73.33 73.28 72.50 71.91 68.80 71.30 70.31 68.31 64.63 62.97 65.63 68.83 69.67 67.38 68.02 67.87 69.43 69.24 68.47 68.76 69.71
73.92 76.17 77.12 77.80 77.87 78.94 77.89 77.80 77.04 74.68 74.68 75.64 76.73 76.18 77.32 77.69 77.71 78.02 78.55 76.95 76.30 74.27 73.89 73.03 73.20 71.73 71.44 68.21 71.49 70.03 69.30 68.01 64.49 62.89 65.76 67.44 67.24 66.52 66.18 67.95 66.34 66.66 66.70
74.66 75.34 77.24 78.02 78.40 78.40 78.81 78.24 77.70 77.37 74.38 76.67 76.49 77.48 77.64 77.83 78.12 76.88 76.74 76.95 74.80 72.74 74.85 72.98 72.45 71.83 72.25 70.12 68.92 69.33 69.20 67.32 68.16 64.09 62.61 63.51 66.11 66.61 66.60 65.81 65.83 66.82 66.27
74.34 75.21 76.04 77.94 78.16 78.61 78.82 78.30 78.24 76.93 75.91 76.29 77.30 74.93 74.87 75.04 76.18 77.10 76.91 75.40 75.06 73.48 74.28 73.35 72.82 72.65 72.15 71.86 70.75 70.12 67.02 67.15 65.20 65.69 63.68 63.96 64.04 64.68 66.39 66.84 65.83 66.07 66.54

GFSSE_sfc_wetblb_030.txt.gz
Wetbulb
71.56 73.56 76.59 76.04 76.45 77.09 78.23 78.41 78.81 79.04 79.07 78.99 78.94 78.57 78.12 77.91 78.04 78.21 77.81 77.12 77.20 76.93 76.65 76.51 76.24 76.13 75.58 75.42 75.49 76.19 75.38 75.44 75.38 75.34 74.41 74.86 75.13 74.91 75.13 75.73 75.52 72.21 73.89
72.37 73.83 76.19 76.83 76.84 78.02 78.39 78.75 78.89 78.81 78.78 78.96 78.70 78.30 77.68 77.38 77.62 77.82 77.54 76.92 76.81 76.79 76.71 76.46 76.02 76.08 75.72 75.56 75.54 75.92 75.21 75.48 75.58 74.93 74.19 74.01 74.71 74.96 75.44 75.48 74.92 72.96 75.31
72.34 73.58 74.60 76.65 77.33 77.81 78.37 78.75 78.59 78.50 78.24 78.80 78.77 78.18 77.45 77.29 77.34 77.35 77.06 77.00 76.58 76.39 76.44 76.50 76.25 75.86 75.72 75.61 75.48 75.39 74.84 74.66 75.00 74.73 74.05 71.35 72.31 75.52 75.90 75.41 74.26 74.99 75.17
72.89 73.18 74.36 76.64 77.42 77.73 78.13 78.39 78.48 78.07 77.65 78.86 78.69 78.23 77.66 77.57 77.27 77.18 76.77 76.63 76.38 76.38 76.50 76.25 76.11 75.89 75.39 75.16 75.69 75.30 74.89 74.90 74.71 74.68 72.68 72.23 72.56 75.09 75.09 74.87 74.04 74.14 74.83
72.44 73.62 74.64 77.69 77.83 77.71 77.90 78.16 78.41 78.27 77.73 78.27 77.85 77.29 77.30 77.34 77.07 76.74 76.63 76.44 76.41 76.36 76.27 76.25 76.00 75.80 75.45 75.04 75.38 75.40 75.31 75.48 75.51 74.54 71.90 70.23 70.57 74.77 75.26 75.08 74.56 75.11 74.99
72.74 74.16 76.71 77.91 77.01 77.61 77.52 77.76 77.48 77.29 77.29 77.85 77.56 77.27 77.07 77.18 76.78 76.59 76.56 76.45 76.39 76.53 76.69 76.01 75.53 75.48 75.23 75.01 75.34 75.39 76.07 77.10 74.18 70.01 70.46 73.10 71.33 74.92 74.81 75.43 74.93 74.54 74.93
72.88 74.85 75.69 77.96 78.05 77.76 77.85 77.37 77.49 76.87 77.33 77.71 77.45 77.15 77.02 77.16 76.70 76.32 76.21 76.35 76.46 76.26 76.73 76.01 75.35 74.96 75.04 75.09 75.31 75.73 76.92 76.02 72.22 72.09 71.33 71.62 72.19 75.83 75.82 75.30 74.51 74.92 74.03
73.82 75.13 75.90 77.88 78.32 78.05 77.39 77.03 76.94 77.01 77.57 77.58 77.59 77.31 77.12 77.21 76.67 76.26 75.93 75.71 75.87 76.10 75.99 75.93 75.26 75.15 74.85 74.60 75.23 76.19 77.03 75.32 73.08 71.64 72.59 72.21 75.33 76.32 75.44 75.17 75.00 74.75 73.90
74.43 74.63 74.95 75.40 76.20 77.85 78.47 77.26 76.82 76.87 77.51 77.57 77.51 77.41 77.19 76.90 76.61 76.04 75.71 75.51 75.48 75.54 75.59 75.82 75.40 75.07 75.34 75.01 75.73 75.83 75.06 74.44 70.43 72.11 72.12 72.30 75.95 75.90 75.24 75.35 74.76 75.01 74.11
73.31 74.12 74.05 74.08 75.08 75.55 76.02 77.39 77.02 76.87 77.35 77.41 77.14 77.17 77.14 76.91 76.62 76.21 77.28 76.84 76.26 75.76 75.59 75.43 75.71 76.39 76.60 76.63 76.27 75.29 74.99 72.31 68.59 69.09 70.30 71.27 74.97 74.59 74.92 75.31 74.38 74.68 74.58
72.64 73.41 73.78 73.84 74.33 74.10 74.10 75.33 76.98 77.15 77.33 77.23 76.63 76.96 77.09 74.36 73.75 74.96 76.26 76.80 76.85 76.29 76.24 75.93 76.13 75.20 76.39 76.38 75.66 74.43 73.40 69.76 70.48 70.98 72.48 73.76 75.30 74.16 73.85 75.06 74.89 74.72 74.88
71.04 72.25 73.37 73.72 73.94 73.36 75.12 73.42 73.43 74.21 74.27 73.78 73.77 73.60 74.68 73.82 71.72 73.59 76.03 77.42 76.99 76.60 76.77 75.90 76.01 73.52 72.01 72.45 73.76 74.11 69.96 70.20 69.88 68.59 72.20 73.43 75.28 75.56 75.63 74.98 75.58 75.00 74.86
71.23 72.62 73.28 73.53 73.59 72.82 73.14 72.74 72.71 72.71 72.45 72.34 72.23 72.39 73.27 74.08 72.54 73.85 74.22 74.56 71.97 74.85 72.78 74.81 74.30 72.06 71.96 71.97 72.86 70.96 69.16 67.26 66.43 67.14 70.47 75.45 76.11 75.49 74.85 75.82 75.28 75.18 75.01
71.23 71.88 72.83 73.46 73.61 72.49 71.82 72.87 72.03 72.26 72.16 71.71 71.95 72.11 72.61 72.44 72.01 72.07 72.86 72.04 72.36 72.63 72.96 73.24 72.29 71.85 72.00 72.17 71.40 71.77 70.56 67.58 69.71 70.98 71.13 75.52 76.22 76.10 75.77 74.59 75.21 75.08 74.88
70.81 71.98 72.29 73.38 73.45 72.69 71.87 71.76 71.27 72.18 72.24 72.17 72.01 72.85 72.99 70.86 71.28 72.12 72.76 72.82 72.58 73.70 72.79 72.22 71.58 71.59 71.82 71.21 71.75 71.05 70.23 71.43 71.43 71.48 69.73 75.70 76.05 76.74 76.87 75.53 74.53 74.70 75.08
70.78 70.97 72.01 71.43 73.09 72.67 72.38 70.68 71.38 72.66 72.89 72.96 73.20 73.21 73.50 71.72 72.39 72.06 72.58 72.01 72.62 72.22 72.56 73.24 71.52 71.81 71.40 73.42 72.59 71.16 70.43 68.94 71.25 71.38 71.56 72.52 76.40 76.34 76.81 76.34 75.81 75.19 74.84
69.92 71.20 71.24 71.39 72.62 72.20 72.18 71.77 73.33 74.16 74.06 73.10 72.90 73.09 73.14 72.64 72.78 72.29 72.12 71.86 72.12 72.69 72.50 72.18 71.32 71.72 72.00 71.43 68.25 68.90 69.93 67.88 68.03 72.06 71.25 71.40 73.01 76.31 77.25 77.14 76.30 75.77 75.34
70.49 70.94 72.25 73.11 72.94 72.16 72.62 73.39 72.32 72.05 71.40 71.60 72.98 73.33 73.36 73.81 73.34 72.57 72.00 71.64 73.18 73.58 73.18 71.29 70.23 68.87 66.57 64.28 62.57 63.35 63.61 64.56 66.43 68.21 71.07 71.38 71.84 72.38 74.93 75.91 76.37 76.48 75.78
70.29 71.05 71.71 72.43 73.08 72.42 72.27 73.10 71.93 71.36 71.45 71.53 72.21 72.64 72.81 73.96 73.93 72.54 71.98 72.55 72.76 72.39 71.63 70.99 68.99 67.79 63.64 62.66 63.09 63.91 64.32 65.73 66.20 68.35 66.84 68.16 69.63 72.11 71.66 74.91 75.24 75.52 75.22
70.28 71.54 72.11 71.94 72.15 72.16 72.24 72.74 71.94 71.55 72.42 72.70 70.94 72.07 72.46 74.07 74.25 72.68 71.92 72.25 72.07 71.28 70.66 69.09 68.32 66.07 63.52 64.22 66.35 64.38 64.11 64.68 67.24 66.42 65.87 69.47 68.98 71.47 71.99 72.73 71.43 72.10 74.88
70.83 71.36 71.88 71.66 71.54 71.46 71.76 71.51 71.12 70.67 71.55 72.56 71.57 73.02 74.02 73.66 74.56 72.94 71.71 72.02 71.67 70.72 69.71 69.15 64.96 62.25 62.38 64.12 60.38 61.62 63.88 63.97 64.25 63.49 64.11 66.23 70.12 70.65 70.15 70.27 70.69 71.42 73.46
69.87 70.89 70.84 71.53 72.00 71.82 72.40 72.29 71.58 71.21 71.94 71.83 72.24 73.49 73.37 73.51 73.82 72.52 71.91 71.34 71.75 71.18 68.94 65.12 63.71 61.72 63.33 63.99 59.62 60.54 59.39 62.01 63.87 63.44 62.14 65.59 67.29 69.26 69.14 69.40 69.81 70.23 69.64
69.11 70.52 70.67 71.29 72.30 72.36 72.86 72.59 71.79 71.55 71.62 71.37 71.33 71.69 72.26 74.25 73.59 72.90 71.81 71.22 71.25 69.82 65.44 64.63 63.90 62.22 61.67 63.66 61.29 61.33 58.03 57.67 62.43 64.31 62.44 64.74 65.03 65.06 65.13 64.99 67.43 69.42 68.44
69.67 70.96 70.86 71.27 73.13 72.92 73.13 72.58 71.68 70.52 69.39 70.23 71.53 73.10 72.49 73.80 73.77 73.26 72.10 71.16 68.76 68.60 65.46 64.83 65.83 64.79 61.59 60.53 63.55 63.80 61.37 60.65 58.85 57.93 61.91 60.78 60.98 63.23 61.95 61.23 61.56 66.99 67.53
70.06 70.77 71.34 71.30 73.05 73.39 73.26 72.86 72.15 70.64 70.72 70.46 70.21 71.10 71.49 72.63 73.32 73.48 72.36 70.70 67.75 67.23 65.90 65.72 64.16 65.12 64.32 63.08 63.10 63.01 60.26 60.60 58.43 58.07 56.15 58.94 60.82 60.54 60.59 60.86 60.53 61.56 66.32
70.14 71.00 71.31 71.16 72.35 73.32 73.35 72.70 71.88 71.08 69.91 69.19 68.83 70.02 71.34 72.33 71.89 72.57 72.36 69.44 67.38 67.07 66.64 65.70 63.85 64.50 64.79 64.10 63.07 61.77 59.43 59.30 58.61 58.72 55.89 56.14 57.28 59.68 60.24 59.37 60.26 60.32 62.59

GFSSE_sfc_wetblb_033.txt.gz
Wetbulb
71.46 72.88 75.56 75.52 75.54 76.94 77.74 78.00 78.50 78.58 78.43 78.43 78.01 77.66 77.76 77.45 76.77 77.00 76.99 76.80 76.57 76.50 76.20 76.37 76.22 75.92 75.15 75.59 75.74 75.49 75.36 75.14 74.82 74.27 74.68 74.84 75.07 75.59 75.34 75.64 73.62 71.97 74.46
72.24 73.84 75.69 75.67 76.45 77.48 77.73 78.16 78.19 78.24 77.84 77.90 77.77 77.52 77.25 76.90 77.10 77.07 76.74 76.75 76.50 76.39 76.21 75.93 76.07 75.76 75.61 75.60 75.67 75.25 75.56 75.08 74.74 74.04 74.19 74.55 74.27 74.63 75.39 75.19 73.73 73.42 74.83
72.26 73.73 74.51 76.51 77.00 77.24 77.38 78.05 77.89 77.80 77.23 77.44 77.25 77.06 76.99 76.85 77.01 76.72 76.67 76.51 76.21 76.22 76.16 76.18 75.80 75.82 75.55 75.53 75.46 75.00 75.08 74.81 75.08 73.99 74.18 71.24 72.54 75.18 75.38 74.32 75.15 74.91 74.69
72.62 72.79 73.82 76.65 77.15 77.28 77.58 77.82 77.98 77.61 77.55 77.28 77.18 77.21 77.25 76.99 76.92 76.71 76.49 76.16 76.02 76.19 75.81 75.89 75.82 75.52 75.35 75.34 75.05 74.85 74.98 74.70 74.90 74.55 71.29 71.19 73.12 75.61 74.68 74.02 74.06 74.59 74.66
72.10 73.01 74.01 76.77 77.63 77.24 77.32 77.77 78.13 78.01 77.39 77.32 77.35 77.23 77.05 76.84 76.60 76.19 76.02 76.07 75.91 75.94 76.32 75.83 75.68 75.46 75.47 75.00 74.92 74.91 75.52 75.60 75.50 73.75 70.59 69.75 71.67 74.37 74.87 73.93 73.95 74.84 74.92
72.42 73.86 75.69 76.94 77.09 76.96 77.01 77.25 77.44 77.42 77.23 77.11 76.93 76.91 76.92 76.66 76.33 76.14 76.14 76.19 75.86 76.16 76.22 75.42 75.28 75.35 75.33 75.14 74.93 74.44 76.32 75.66 75.02 72.05 69.66 72.39 71.69 75.21 75.30 75.05 74.89 74.78 75.13
71.96 73.45 74.56 77.45 77.59 77.28 77.01 76.97 76.86 77.16 77.25 77.19 77.01 76.86 76.93 76.61 76.12 76.17 75.95 76.09 75.76 76.04 76.14 75.56 75.26 75.01 75.30 75.09 74.90 74.80 75.72 75.01 71.56 71.70 71.27 71.01 71.69 75.42 75.16 74.88 74.93 74.48 75.11
72.92 73.82 74.53 76.54 76.96 77.00 76.81 76.86 76.70 76.84 77.17 77.16 76.99 76.81 77.03 76.68 76.20 75.96 75.74 75.63 75.66 75.85 75.60 75.60 75.07 75.06 74.65 74.60 74.82 76.55 75.90 74.16 72.10 71.82 71.94 71.82 74.21 75.76 75.76 74.54 74.98 74.01 74.46
74.33 74.29 74.24 74.19 75.10 76.82 77.00 76.68 76.57 76.94 77.17 77.19 77.17 77.02 76.85 76.68 76.22 76.01 75.52 75.24 75.35 75.35 75.38 75.27 75.04 74.96 74.90 74.85 75.52 75.95 75.72 74.46 71.43 71.51 72.76 72.55 76.05 75.47 75.46 74.65 74.65 73.91 74.07
73.75 73.96 73.75 73.43 73.88 74.39 74.70 76.71 76.55 76.94 77.32 77.20 77.29 77.18 77.00 76.60 76.26 75.93 77.00 75.96 75.93 75.79 75.35 75.24 75.49 74.56 75.54 75.86 75.55 75.07 75.45 73.82 68.70 69.53 70.75 71.76 75.33 75.34 74.74 74.35 74.81 74.62 73.93
72.93 73.08 73.07 73.36 73.76 74.33 74.13 74.76 76.60 76.82 77.09 77.24 76.75 76.97 76.86 73.87 73.72 74.55 75.64 76.21 75.46 76.41 76.07 75.77 75.49 74.65 75.60 76.31 75.67 74.72 74.09 68.07 68.59 69.36 71.68 73.24 74.67 74.63 74.54 74.91 74.30 74.24 74.56
71.01 72.50 73.24 73.05 73.64 73.58 74.93 73.32 73.31 73.50 74.34 74.18 73.88 73.45 74.00 73.41 72.72 72.68 75.02 76.51 76.23 76.12 75.66 76.01 76.10 73.44 73.05 72.53 73.70 74.02 69.99 69.23 68.76 70.66 70.97 73.96 74.50 73.88 73.69 74.72 74.78 74.62 74.61
70.86 72.30 73.05 73.43 73.58 73.23 73.31 72.28 72.41 72.74 72.60 72.56 72.32 72.30 72.41 73.43 71.96 72.87 73.43 73.48 72.05 73.95 72.96 73.98 73.76 71.71 71.22 71.27 72.49 69.66 69.39 67.77 68.05 65.36 70.73 73.93 74.95 75.44 75.45 74.76 75.37 74.69 74.66
70.33 71.41 72.69 73.47 73.19 72.15 71.69 72.46 72.20 71.85 71.43 71.25 71.28 71.48 71.08 71.63 71.70 71.67 72.13 71.92 71.89 72.02 72.02 72.30 72.19 71.34 71.43 71.89 71.96 71.70 69.96 66.94 66.57 68.68 67.99 75.05 75.52 75.29 75.34 75.43 75.08 75.16 74.89
69.81 71.04 72.10 73.02 72.68 72.10 70.62 71.27 70.30 70.89 71.24 71.27 70.87 71.13 71.63 71.46 71.06 71.20 71.97 72.35 71.86 73.39 72.27 72.07 70.84 70.91 71.25 71.24 70.91 70.28 70.33 70.28 68.31 71.18 69.22 75.10 76.21 75.49 75.46 74.89 75.10 75.05 74.67
70.37 70.89 71.99 72.30 72.44 71.94 70.66 70.07 70.39 70.59 71.38 71.33 71.12 71.45 72.72 71.52 70.71 71.54 71.29 71.53 71.40 72.03 72.41 71.84 71.44 71.00 70.94 72.64 71.98 70.30 68.78 68.69 70.50 70.74 69.26 71.30 74.98 75.86 76.28 75.96 75.13 74.63 74.77
70.58 71.29 71.33 71.97 72.59 72.10 71.24 70.61 70.31 70.84 72.29 72.66 72.31 71.99 72.58 71.65 71.90 71.88 71.57 71.04 71.32 71.86 71.76 72.10 70.58 70.99 69.19 68.67 63.90 64.71 67.81 68.86 70.05 70.78 70.34 70.31 72.62 75.23 76.14 76.16 76.20 75.24 74.81
70.89 70.63 71.41 72.64 71.86 71.84 71.55 71.06 70.86 71.65 73.03 73.08 71.82 71.99 72.39 72.16 72.41 71.52 70.92 70.88 71.83 72.18 72.42 71.15 69.56 67.14 64.76 63.59 61.09 62.93 63.25 64.36 65.37 70.19 70.56 70.36 70.50 71.29 74.03 75.38 75.69 75.80 74.48
70.48 70.04 70.21 71.13 70.87 71.48 71.53 71.72 71.12 71.55 70.45 70.58 71.24 71.84 72.13 72.76 73.19 72.18 70.98 71.08 71.67 71.78 72.01 70.54 68.51 66.59 62.67 61.80 62.36 63.03 63.38 63.96 65.36 66.77 69.49 70.20 70.22 71.28 70.64 73.88 74.96 75.10 75.05
70.09 70.22 70.51 70.90 71.15 71.29 71.88 72.00 70.80 70.06 70.33 71.15 71.11 71.70 71.97 72.70 73.38 72.50 71.47 71.74 71.75 70.76 70.04 68.44 67.16 64.80 62.57 62.96 65.07 63.19 63.44 63.88 66.41 65.43 65.37 68.47 66.41 71.13 71.33 72.25 70.73 71.79 74.62
69.90 69.62 70.66 70.37 71.28 71.31 70.82 70.96 69.78 69.14 69.91 71.14 70.94 71.40 71.56 73.43 73.41 72.59 70.95 71.19 70.57 70.04 69.48 68.00 64.65 62.00 60.93 63.31 59.12 60.07 62.89 63.29 62.65 62.98 65.54 68.30 69.65 70.37 70.34 69.70 69.77 70.09 72.17
68.62 69.16 70.14 70.69 71.04 71.39 71.40 71.79 70.83 70.18 70.53 70.77 71.71 71.27 72.79 73.44 73.77 72.47 70.96 70.87 70.85 69.93 68.47 67.23 63.20 61.04 61.97 62.88 59.11 59.46 58.38 61.05 62.41 62.19 62.57 67.87 68.49 68.78 68.85 69.33 69.57 69.91 69.64
68.24 69.13 70.06 70.68 70.69 71.25 71.40 70.79 70.56 70.33 70.65 70.18 70.31 70.97 72.32 72.72 73.73 72.48 71.57 70.90 70.40 70.37 67.34 63.93 63.11 61.59 61.03 62.69 60.70 60.37 57.67 56.64 59.87 62.18 61.80 66.22 66.63 66.28 66.29 67.14 68.20 68.67 67.51
68.53 70.00 70.49 70.80 70.88 70.96 71.02 70.83 70.46 69.14 68.54 69.30 70.35 70.87 70.92 72.46 73.22 72.53 71.67 70.80 70.58 69.33 66.02 63.95 64.04 61.94 61.05 61.15 62.74 62.65 60.36 60.53 58.46 57.23 60.14 61.95 61.72 63.76 62.18 62.44 65.59 68.11 66.81
69.61 69.80 70.49 70.54 71.06 71.33 71.36 71.37 70.68 69.61 70.21 69.23 69.73 70.34 70.61 71.72 72.55 73.04 71.69 70.45 68.57 68.06 65.74 64.68 64.04 64.25 61.07 60.91 62.10 61.21 59.02 60.14 57.75 57.92 55.90 57.71 59.90 60.19 61.27 60.11 60.41 64.96 66.68
69.73 69.46 70.33 69.58 70.77 71.35 71.41 71.60 71.09 70.28 69.58 68.84 68.02 69.23 69.58 70.82 71.83 72.30 72.04 70.20 67.46 67.28 65.41 64.87 64.17 64.19 64.51 63.31 62.29 61.22 58.83 58.07 58.13 57.21 55.59 56.42 57.39 58.75 59.11 59.41 59.02 59.79 65.31